sat.trackr.live / text

‹ back to catalog

STARLINK-36800

NORAD 67797 · 2026-032A

PAYLOAD ACTIVE UNKNOWN

§ Identity

Operator
Country
US
Launch date
2026-02-15
Launch site
AFWTR
Launch vehicle
Mass (kg)
RCS (m²)

Purposes: comms

External: N2YO · Heavens-Above · Gunter

§ Orbital elements

Epoch: 2026-05-25T02:03:39.564576Z

Period
93.91 min
Inclination
97.2855°
Eccentricity
0.0001601
Mean motion
15.33451934 rev/d
Perigee alt
464.4 km
Apogee alt
466.6 km
Semi-major
6,843.7 km
B*
3.9521e-4
RAAN
333.2559°
Arg perigee
88.3703°
Mean anomaly
271.7724°
Rev number
1,667

§ Raw data

STARLINK-368001 67797U 26032A   26145.08587459  .00012708  00000+0  39521-3 0  99932 67797  97.2855 333.2559 0001601  88.3703 271.7724 15.33451934 16679

JSON: /api/v1/satellites/67797 · /tle

For live sub-satellite position, see the globe view (requires WebGL).

§ Visibility from observer

Set your observer location to see the next 7 days of passes ≥ 10°. The values pass through the URL so the page stays shareable.

No JS? Fill the form by hand. The geolocation button needs JavaScript.